Home   Weather   Beersheba   Past weeks

Flag for Israel Past Weather in Beersheba, Israel — Yesterday and Last 2 Weeks

Now
61 °F

Clear.


Feels Like: 61 °F
Forecast: 45 / 70 °F
Wind: 3 mph from North

Location: Ben Gurion International Airport

Current Time: Dec 6, 2016 at 10:11:32 pm

Latest Report: Dec 6, 2016 at 9:20 pm


Visibility: 10 mi

Pressure: 30.21 "Hg

Humidity: 63%

Dew Point: 48 °F

Location of BeershebaLocation

Past Weather in Beersheba — Graph

°F

Beersheba Temperature Yesterday

Maximum temperature yesterday: 68 °F (at 10:50 am)
Minimum temperature yesterday: 48 °F (at 6:50 am)
Average temperature yesterday: 59 °F

High & Low Weather Summary for the Past Weeks

 TemperatureHumidityPressure
High79 °F (Nov 22, 11:50 am)94% (Dec 2, 12:20 am)30.30 "Hg (Dec 2, 12:20 am)
Low39 °F (Nov 26, 4:20 am)4% (Nov 24, 2:20 pm)29.74 "Hg (Dec 1, 1:50 pm)
Average63 °F42%30.04 "Hg
* Reported Nov 21 8:20 pm — Dec 6 8:50 pm, Beersheba, Weather by CustomWeather, © 2016

Note: Actual official high and low records may vary slightly from our data, if they occured in-between our weather recording intervals... More about our weather records

Advertising

Beersheba Weather History for the Previous 24 Hours

Scroll right to see more
 ConditionsComfort  
Time TempWeatherWind HumidityBarometerVisibility
8:50 pm
Tue, Dec 6
59 °FClear.3 mph68%30.21 "Hg10 mi
7:50 pm61 °FClear.3 mph68%30.21 "Hg10 mi
7:20 pm61 °FClear.6 mph72%30.21 "Hg10 mi
6:50 pm63 °FClear.5 mph68%30.21 "Hg10 mi
6:20 pm64 °FClear.2 mph64%30.18 "Hg10 mi
5:50 pm64 °FClear.1 mph64%30.18 "Hg10 mi
5:20 pm66 °FClear.3 mph60%30.18 "Hg10 mi
4:50 pm66 °FClear.7 mph60%30.18 "Hg10 mi
4:20 pm68 °FPassing clouds.8 mph49%30.15 "HgN/A
3:50 pm68 °FPassing clouds.9 mph53%30.15 "HgN/A
3:20 pm70 °FPassing clouds.10 mph46%30.15 "HgN/A
2:50 pm70 °FPassing clouds.9 mph50%30.15 "HgN/A
2:20 pm70 °FPassing clouds.9 mph46%30.15 "HgN/A
1:50 pm70 °FPassing clouds.9 mph46%30.15 "HgN/A
1:20 pm70 °FPassing clouds.7 mph46%30.15 "HgN/A
12:50 pm72 °FPassing clouds.5 mph38%30.15 "HgN/A
12:20 pm70 °FPassing clouds.3 mph43%30.15 "HgN/A
11:50 am70 °FPassing clouds.3 mph43%30.18 "HgN/A
11:20 am70 °FPassing clouds.3 mph40%30.18 "HgN/A
10:50 am68 °FPassing clouds.2 mph49%30.21 "HgN/A
10:20 am66 °FPassing clouds.2 mph56%30.21 "HgN/A
9:50 am63 °FPassing clouds.2 mph59%30.21 "HgN/A
9:20 am61 °FPassing clouds.2 mph68%30.21 "HgN/A
8:50 am61 °FPassing clouds.2 mph68%30.21 "HgN/A
8:20 am55 °FSunny.2 mph82%30.21 "Hg10 mi
7:50 am54 °FSunny.2 mph88%30.21 "Hg10 mi
7:20 am52 °FSunny.3 mph88%30.21 "Hg10 mi
6:50 am50 °FSunny.5 mph94%30.21 "Hg10 mi
6:20 am50 °FClear.3 mph94%30.18 "Hg10 mi
5:50 am50 °FClear.1 mph94%30.18 "Hg10 mi
5:20 am50 °FClear.1 mph94%30.18 "Hg10 mi
4:50 am50 °FClear.1 mph94%30.18 "Hg10 mi
4:20 am52 °FClear.2 mph88%30.18 "Hg10 mi
3:50 am52 °FClear.1 mph88%30.18 "Hg10 mi
3:20 am52 °FClear.3 mph88%30.18 "Hg10 mi
2:50 am52 °FClear.2 mph94%30.18 "Hg10 mi
2:20 am52 °FClear.2 mph94%30.18 "Hg10 mi
1:50 am54 °FClear.3 mph88%30.18 "Hg10 mi
1:20 am55 °FClear.3 mph82%30.18 "Hg10 mi
12:50 am54 °FClear.1 mph88%30.18 "Hg10 mi
12:20 am55 °FClear.1 mph88%30.18 "Hg10 mi
11:50 pm
Mon, Dec 5
55 °FClear.2 mph88%30.18 "Hg10 mi
11:20 pm55 °FClear.2 mph88%30.18 "Hg10 mi
10:50 pm55 °FClear.3 mph88%30.18 "Hg10 mi
10:20 pm55 °FClear.3 mph88%30.18 "Hg10 mi
Weather by CustomWeather, © 2016

See weather overviewHow to use our weather pages